LHX1VV EDDM-LRTR

Flight info

Callsign LHX1VV
Flight time 1h 15m
Altitude 39000
Route KIRDI3S/26L KIRDI DCT BUBSE DCT GOTAR DCT BABIT/N0378F190 Y574 ROMUX
Aircraft A20N/M-SDE2E3FGHIRWXY/LB1

Departure

Time 2026-05-05 17:34
Airport Munich Airport (EDDM)

Arrival

Time 2026-05-05 18:49
Airport Timișoara Traian Vuia International Airport (LRTR)
Time Latitude Longitude Altitude Speed Heading
2026-05-05 17:10 48.35510 11.80253 1475 ft 0 kts 83°
2026-05-05 17:23 48.35508 11.80231 1473 ft 4 kts 83°
2026-05-05 17:24 48.35505 11.80191 1476 ft 3 kts 83°
2026-05-05 17:24 48.35504 11.80163 1471 ft 4 kts 126°
2026-05-05 17:24 48.35522 11.80150 1474 ft 4 kts 173°
2026-05-05 17:24 48.35536 11.80147 1477 ft 0 kts 173°
2026-05-05 17:26 48.35534 11.80147 1476 ft 2 kts 173°
2026-05-05 17:27 48.35505 11.80153 1471 ft 7 kts 173°
2026-05-05 17:27 48.35442 11.80164 1485 ft 10 kts 172°
2026-05-05 17:27 48.35382 11.80186 1482 ft 8 kts 167°
2026-05-05 17:27 48.35321 11.80200 1485 ft 11 kts 172°
2026-05-05 17:28 48.35244 11.80212 1481 ft 10 kts 173°
2026-05-05 17:28 48.35178 11.80224 1482 ft 9 kts 173°
2026-05-05 17:28 48.35117 11.80210 1485 ft 11 kts 225°
2026-05-05 17:28 48.35102 11.80103 1485 ft 10 kts 263°
2026-05-05 17:29 48.35094 11.79995 1485 ft 10 kts 264°
2026-05-05 17:29 48.35086 11.79891 1485 ft 10 kts 264°
2026-05-05 17:29 48.35079 11.79794 1480 ft 9 kts 263°
2026-05-05 17:29 48.35070 11.79710 1475 ft 7 kts 252°
2026-05-05 17:30 48.35037 11.79668 1481 ft 6 kts 197°
2026-05-05 17:30 48.34984 11.79671 1471 ft 10 kts 174°
2026-05-05 17:30 48.34919 11.79682 1474 ft 11 kts 173°
2026-05-05 17:30 48.34834 11.79697 1485 ft 13 kts 173°
2026-05-05 17:31 48.34754 11.79711 1482 ft 11 kts 173°
2026-05-05 17:31 48.34693 11.79677 1474 ft 9 kts 227°
2026-05-05 17:31 48.34658 11.79610 1478 ft 7 kts 233°
2026-05-05 17:31 48.34630 11.79554 1478 ft 6 kts 233°
2026-05-05 17:32 48.34608 11.79509 1479 ft 5 kts 233°
2026-05-05 17:32 48.34584 11.79460 1477 ft 9 kts 233°
2026-05-05 17:32 48.34532 11.79355 1481 ft 15 kts 233°
2026-05-05 17:32 48.34469 11.79228 1482 ft 16 kts 233°
2026-05-05 17:33 48.34392 11.79112 1475 ft 16 kts 226°
2026-05-05 17:33 48.34358 11.78857 1483 ft 50 kts 263°
2026-05-05 17:33 48.34291 11.77997 1475 ft 115 kts 263°
2026-05-05 17:33 48.34178 11.76528 1495 ft 165 kts 265°
2026-05-05 17:34 48.34051 11.74820 2177 ft 162 kts 265°
2026-05-05 17:34 48.33923 11.73143 2952 ft 161 kts 267°
2026-05-05 17:34 48.33517 11.71527 3426 ft 182 kts 230°
2026-05-05 17:34 48.32314 11.70672 3834 ft 208 kts 190°
2026-05-05 17:35 48.30794 11.70585 4144 ft 231 kts 183°
2026-05-05 17:35 48.29158 11.70737 4876 ft 238 kts 169°
2026-05-05 17:35 48.28127 11.71332 5408 ft 246 kts 155°
2026-05-05 17:35 48.26621 11.72829 5822 ft 272 kts 148°
2026-05-05 17:36 48.24523 11.75007 6849 ft 279 kts 148°
2026-05-05 17:36 48.22918 11.76670 7749 ft 281 kts 148°
2026-05-05 17:36 48.21294 11.78339 8644 ft 284 kts 148°
2026-05-05 17:36 48.19768 11.80266 9523 ft 292 kts 133°
2026-05-05 17:37 48.19021 11.81959 10072 ft 299 kts 118°
2026-05-05 17:37 48.18494 11.85065 10470 ft 324 kts 94°
2026-05-05 17:37 48.18545 11.88568 10703 ft 349 kts 89°
2026-05-05 17:37 48.18658 11.92313 10952 ft 369 kts 89°
2026-05-05 17:38 48.18792 11.96204 11540 ft 377 kts 89°
2026-05-05 17:38 48.18925 12.00156 12246 ft 382 kts 89°
2026-05-05 17:38 48.19048 12.04146 12970 ft 386 kts 89°
2026-05-05 17:38 48.19160 12.08178 13710 ft 388 kts 89°
2026-05-05 17:39 48.19262 12.12232 14341 ft 392 kts 90°
2026-05-05 17:39 48.19358 12.16329 14979 ft 395 kts 90°
2026-05-05 17:39 48.19455 12.20449 15609 ft 398 kts 90°
2026-05-05 17:39 48.19553 12.24551 16209 ft 401 kts 90°
2026-05-05 17:40 48.19650 12.28740 16817 ft 404 kts 90°
2026-05-05 17:40 48.19746 12.32960 17424 ft 407 kts 90°
2026-05-05 17:40 48.19841 12.37213 17987 ft 410 kts 90°
2026-05-05 17:40 48.19937 12.41506 18485 ft 414 kts 90°
2026-05-05 17:41 48.20033 12.45830 18982 ft 417 kts 91°
2026-05-05 17:41 48.20126 12.50188 19474 ft 420 kts 91°
2026-05-05 17:41 48.20216 12.54574 19958 ft 423 kts 91°
2026-05-05 17:41 48.20306 12.58986 20429 ft 426 kts 91°
2026-05-05 17:42 48.20397 12.63381 20898 ft 429 kts 91°
2026-05-05 17:42 48.20490 12.67865 21356 ft 432 kts 91°
2026-05-05 17:42 48.20582 12.72373 21815 ft 435 kts 91°
2026-05-05 17:42 48.20669 12.76919 22267 ft 438 kts 91°
2026-05-05 17:43 48.20757 12.81494 22718 ft 440 kts 91°
2026-05-05 17:43 48.20849 12.86100 23152 ft 443 kts 91°
2026-05-05 17:43 48.20951 12.90733 23536 ft 446 kts 91°
2026-05-05 17:43 48.21056 12.95388 23873 ft 448 kts 91°
2026-05-05 17:44 48.21160 13.00071 24245 ft 450 kts 91°
2026-05-05 17:44 48.21263 13.04712 24584 ft 453 kts 91°
2026-05-05 17:44 48.21366 13.09440 24935 ft 455 kts 91°
2026-05-05 17:44 48.21465 13.14198 25272 ft 458 kts 92°
2026-05-05 17:45 48.21560 13.18980 25606 ft 460 kts 92°
2026-05-05 17:45 48.21649 13.23781 25933 ft 462 kts 92°
2026-05-05 17:45 48.21737 13.28617 26248 ft 465 kts 92°
2026-05-05 17:45 48.21825 13.33468 26560 ft 467 kts 92°
2026-05-05 17:46 48.21775 13.38337 26845 ft 466 kts 99°
2026-05-05 17:46 48.21269 13.43043 27157 ft 463 kts 107°
2026-05-05 17:46 48.20299 13.47628 27460 ft 460 kts 116°
2026-05-05 17:46 48.18900 13.51923 27762 ft 458 kts 124°
2026-05-05 17:47 48.17216 13.55972 28048 ft 459 kts 126°
2026-05-05 17:47 48.15509 13.60025 28339 ft 461 kts 126°
2026-05-05 17:47 48.13802 13.64083 28722 ft 460 kts 126°
2026-05-05 17:47 48.12099 13.68134 29134 ft 459 kts 126°
2026-05-05 17:48 48.10397 13.72179 29548 ft 459 kts 126°
2026-05-05 17:48 48.08697 13.76213 29914 ft 458 kts 126°
2026-05-05 17:48 48.07022 13.80186 30244 ft 458 kts 126°
2026-05-05 17:48 48.05322 13.84209 30561 ft 458 kts 126°
2026-05-05 17:49 48.03618 13.88229 30872 ft 458 kts 126°
2026-05-05 17:49 48.01913 13.92247 31185 ft 458 kts 126°
2026-05-05 17:49 48.00204 13.96267 31498 ft 458 kts 126°
2026-05-05 17:49 47.98491 14.00283 31818 ft 459 kts 126°
2026-05-05 17:50 47.96773 14.04296 32120 ft 459 kts 126°
2026-05-05 17:50 47.95055 14.08312 32422 ft 459 kts 126°
2026-05-05 17:50 47.93336 14.12328 32705 ft 460 kts 125°
2026-05-05 17:50 47.91634 14.16302 32959 ft 461 kts 126°
2026-05-05 17:51 47.89905 14.20332 33232 ft 462 kts 126°
2026-05-05 17:51 47.88171 14.24368 33533 ft 463 kts 125°
2026-05-05 17:51 47.86432 14.28402 33817 ft 463 kts 126°
2026-05-05 17:51 47.84691 14.32433 34101 ft 463 kts 126°
2026-05-05 17:52 47.82949 14.36468 34407 ft 463 kts 126°
2026-05-05 17:52 47.81212 14.40494 34685 ft 463 kts 126°
2026-05-05 17:52 47.79474 14.44521 34950 ft 462 kts 126°
2026-05-05 17:52 47.77756 14.48488 35215 ft 462 kts 126°
2026-05-05 17:53 47.76016 14.52490 35513 ft 461 kts 126°
2026-05-05 17:53 47.74277 14.56480 35791 ft 460 kts 126°
2026-05-05 17:53 47.72535 14.60466 36038 ft 460 kts 126°
2026-05-05 17:53 47.70794 14.64448 36297 ft 460 kts 126°
2026-05-05 17:54 47.69054 14.68434 36499 ft 461 kts 126°
2026-05-05 17:54 47.67313 14.72426 36724 ft 460 kts 126°
2026-05-05 17:54 47.65572 14.76414 36972 ft 460 kts 126°
2026-05-05 17:54 47.63831 14.80395 37195 ft 460 kts 126°
2026-05-05 17:55 47.62111 14.84314 37406 ft 460 kts 126°
2026-05-05 17:55 47.60359 14.88289 37573 ft 461 kts 126°
2026-05-05 17:55 47.58603 14.92265 37770 ft 461 kts 126°
2026-05-05 17:55 47.56844 14.96240 37968 ft 461 kts 126°
2026-05-05 17:56 47.55083 15.00213 38156 ft 462 kts 126°
2026-05-05 17:56 47.53321 15.04189 38327 ft 462 kts 126°
2026-05-05 17:56 47.51558 15.08168 38492 ft 462 kts 126°
2026-05-05 17:56 47.49819 15.12090 38637 ft 462 kts 126°
2026-05-05 17:57 47.48058 15.16058 38783 ft 462 kts 126°
2026-05-05 17:57 47.44508 15.24029 38841 ft 465 kts 126°
2026-05-05 17:58 47.40943 15.32004 38849 ft 465 kts 126°
2026-05-05 17:58 47.37370 15.39980 38846 ft 466 kts 127°
2026-05-05 17:59 47.33812 15.47901 38856 ft 466 kts 127°
2026-05-05 17:59 47.30221 15.55863 38849 ft 466 kts 126°
2026-05-05 18:00 47.26622 15.63814 38863 ft 466 kts 126°
2026-05-05 18:00 47.23024 15.71756 38870 ft 466 kts 126°
2026-05-05 18:01 47.19447 15.79634 38883 ft 466 kts 126°
2026-05-05 18:01 47.15836 15.87557 38875 ft 466 kts 126°
2026-05-05 18:02 47.12219 15.95463 38876 ft 466 kts 126°
2026-05-05 18:02 47.08599 16.03359 38891 ft 466 kts 126°
2026-05-05 18:03 47.04966 16.11245 38897 ft 467 kts 126°
2026-05-05 18:03 47.01350 16.19072 38904 ft 467 kts 126°
2026-05-05 18:04 46.98000 16.27232 38904 ft 469 kts 121°
2026-05-05 18:04 46.94865 16.35595 38915 ft 469 kts 121°
2026-05-05 18:05 46.91711 16.43943 38918 ft 469 kts 121°
2026-05-05 18:05 46.88570 16.52220 38919 ft 469 kts 121°
2026-05-05 18:06 46.85406 16.60548 38926 ft 468 kts 121°
2026-05-05 18:06 46.82248 16.68858 38942 ft 468 kts 121°
2026-05-05 18:07 46.79083 16.77154 38936 ft 467 kts 121°
2026-05-05 18:07 46.75938 16.85374 38934 ft 467 kts 121°
2026-05-05 18:08 46.72753 16.93639 38931 ft 467 kts 121°
2026-05-05 18:08 46.69566 17.01888 38943 ft 467 kts 121°
2026-05-05 18:09 46.66379 17.10126 38942 ft 467 kts 121°
2026-05-05 18:09 46.63206 17.18288 38942 ft 467 kts 121°
2026-05-05 18:10 46.60013 17.26503 38937 ft 466 kts 121°
2026-05-05 18:10 46.56818 17.34693 38947 ft 465 kts 121°
2026-05-05 18:11 46.53620 17.42862 38955 ft 465 kts 121°
2026-05-05 18:11 46.50444 17.50951 38957 ft 464 kts 121°
2026-05-05 18:12 46.47241 17.59086 38964 ft 464 kts 121°
2026-05-05 18:12 46.44043 17.67197 38971 ft 463 kts 121°
2026-05-05 18:13 46.40842 17.75293 38959 ft 462 kts 121°
2026-05-05 18:13 46.37650 17.83313 38961 ft 463 kts 121°
2026-05-05 18:14 46.34424 17.91378 38966 ft 463 kts 121°
2026-05-05 18:14 46.31197 17.99446 38967 ft 463 kts 121°
2026-05-05 18:15 46.27967 18.07512 38977 ft 463 kts 121°
2026-05-05 18:15 46.24754 18.15518 38984 ft 463 kts 121°
2026-05-05 18:16 46.21513 18.23564 38983 ft 463 kts 121°
2026-05-05 18:16 46.18265 18.31594 38991 ft 463 kts 121°
2026-05-05 18:17 46.15010 18.39616 38993 ft 463 kts 122°
2026-05-05 18:17 46.11755 18.47614 38992 ft 463 kts 121°
2026-05-05 18:18 46.08519 18.55558 38989 ft 463 kts 122°
2026-05-05 18:18 46.05258 18.63538 38977 ft 462 kts 121°
2026-05-05 18:19 46.01988 18.71501 38970 ft 462 kts 122°
2026-05-05 18:19 45.98712 18.79458 38969 ft 462 kts 121°
2026-05-05 18:20 45.95464 18.87354 38970 ft 462 kts 119°
2026-05-05 18:20 45.93258 18.96003 38970 ft 463 kts 100°
2026-05-05 18:21 45.92711 19.05203 38964 ft 463 kts 93°
2026-05-05 18:21 45.92352 19.14433 38957 ft 463 kts 93°
2026-05-05 18:22 45.91981 19.23609 38954 ft 463 kts 93°
2026-05-05 18:22 45.91600 19.32847 38956 ft 464 kts 93°
2026-05-05 18:23 45.91209 19.42090 38957 ft 464 kts 93°
2026-05-05 18:23 45.90822 19.51329 38964 ft 464 kts 93°
2026-05-05 18:24 45.90435 19.60504 38959 ft 463 kts 93°
2026-05-05 18:24 45.90037 19.69731 38958 ft 463 kts 93°
2026-05-05 18:25 45.89621 19.78946 38954 ft 463 kts 94°
2026-05-05 18:25 45.89196 19.88157 38953 ft 462 kts 94°
2026-05-05 18:26 45.88772 19.97362 38952 ft 462 kts 94°
2026-05-05 18:26 45.88348 20.06508 38753 ft 462 kts 94°
2026-05-05 18:26 45.88130 20.11102 38513 ft 461 kts 94°
2026-05-05 18:27 45.87909 20.15689 38225 ft 461 kts 94°
2026-05-05 18:27 45.87687 20.20270 37928 ft 461 kts 94°
2026-05-05 18:27 45.87463 20.24858 37299 ft 460 kts 94°
2026-05-05 18:27 45.87238 20.29440 36576 ft 461 kts 94°
2026-05-05 18:28 45.86771 20.38598 34979 ft 467 kts 94°
2026-05-05 18:28 45.86530 20.43268 34066 ft 473 kts 94°
2026-05-05 18:28 45.86464 20.48003 33037 ft 477 kts 84°
2026-05-05 18:29 45.87038 20.52685 32031 ft 478 kts 71°
2026-05-05 18:29 45.88265 20.57115 30953 ft 479 kts 59°
2026-05-05 18:29 45.90098 20.61093 29886 ft 479 kts 47°
2026-05-05 18:29 45.92459 20.64470 28468 ft 481 kts 36°
2026-05-05 18:30 45.95269 20.67083 27112 ft 483 kts 24°
2026-05-05 18:30 45.98256 20.69184 25820 ft 487 kts 28°
2026-05-05 18:30 46.00858 20.72226 24559 ft 480 kts 48°
2026-05-05 18:30 46.02554 20.76270 23409 ft 469 kts 70°
2026-05-05 18:31 46.03158 20.80777 22514 ft 450 kts 88°
2026-05-05 18:31 46.03042 20.85236 21949 ft 442 kts 98°
2026-05-05 18:31 46.02432 20.89475 21809 ft 424 kts 107°
2026-05-05 18:31 46.01582 20.93446 21677 ft 408 kts 108°
2026-05-05 18:32 46.00720 20.97258 21547 ft 393 kts 109°
2026-05-05 18:32 45.99847 21.00914 21413 ft 380 kts 110°
2026-05-05 18:32 45.98975 21.04430 21284 ft 367 kts 110°
2026-05-05 18:32 45.98128 21.07789 21151 ft 347 kts 110°
2026-05-05 18:33 45.97332 21.10926 20907 ft 332 kts 110°
2026-05-05 18:33 45.96552 21.14012 20453 ft 325 kts 110°
2026-05-05 18:33 45.95792 21.17037 20150 ft 320 kts 110°
2026-05-05 18:33 45.95041 21.20037 19867 ft 319 kts 110°
2026-05-05 18:34 45.94291 21.23052 19459 ft 321 kts 110°
2026-05-05 18:34 45.93548 21.26044 19196 ft 316 kts 110°
2026-05-05 18:34 45.92807 21.29008 18809 ft 313 kts 111°
2026-05-05 18:34 45.92072 21.31940 18296 ft 311 kts 111°
2026-05-05 18:35 45.91342 21.34847 17782 ft 307 kts 111°
2026-05-05 18:35 45.90632 21.37675 17257 ft 303 kts 111°
2026-05-05 18:35 45.89923 21.40494 16826 ft 299 kts 111°
2026-05-05 18:35 45.89211 21.43313 16433 ft 301 kts 111°
2026-05-05 18:36 45.88502 21.46122 16100 ft 300 kts 111°
2026-05-05 18:36 45.87794 21.48933 15846 ft 297 kts 111°
2026-05-05 18:36 45.87093 21.51708 15553 ft 295 kts 111°
2026-05-05 18:36 45.86396 21.54451 15209 ft 288 kts 111°
2026-05-05 18:37 45.85715 21.57140 14701 ft 287 kts 111°
2026-05-05 18:37 45.85043 21.59794 14229 ft 286 kts 111°
2026-05-05 18:37 45.84365 21.62466 13787 ft 283 kts 112°
2026-05-05 18:37 45.83701 21.65083 13361 ft 276 kts 112°
2026-05-05 18:38 45.83047 21.67651 12863 ft 273 kts 112°
2026-05-05 18:38 45.82402 21.70197 12350 ft 271 kts 112°
2026-05-05 18:38 45.81767 21.72726 11836 ft 268 kts 112°
2026-05-05 18:38 45.81141 21.75230 11339 ft 266 kts 112°
2026-05-05 18:39 45.80513 21.77711 10848 ft 264 kts 112°
2026-05-05 18:39 45.79906 21.80138 10371 ft 261 kts 112°
2026-05-05 18:39 45.79303 21.82582 9893 ft 259 kts 112°
2026-05-05 18:39 45.78712 21.85002 9376 ft 256 kts 114°
2026-05-05 18:40 45.77830 21.87138 8869 ft 247 kts 137°
2026-05-05 18:40 45.76462 21.88531 8361 ft 240 kts 160°
2026-05-05 18:40 45.74856 21.88990 7864 ft 235 kts 182°
2026-05-05 18:40 45.73277 21.88498 7365 ft 233 kts 204°
2026-05-05 18:41 45.71968 21.87153 6877 ft 234 kts 226°
2026-05-05 18:41 45.71144 21.85187 6446 ft 236 kts 249°
2026-05-05 18:41 45.70839 21.82926 6192 ft 227 kts 257°
2026-05-05 18:41 45.70609 21.80746 5930 ft 217 kts 257°
2026-05-05 18:42 45.70473 21.78633 5679 ft 210 kts 264°
2026-05-05 18:42 45.70521 21.76572 5429 ft 205 kts 270°
2026-05-05 18:42 45.70739 21.74565 5182 ft 204 kts 279°
2026-05-05 18:42 45.71149 21.72610 4944 ft 206 kts 284°
2026-05-05 18:43 45.71628 21.70672 4709 ft 207 kts 285°
2026-05-05 18:43 45.72114 21.68765 4455 ft 207 kts 285°
2026-05-05 18:43 45.72608 21.66831 4209 ft 207 kts 285°
2026-05-05 18:43 45.73102 21.64895 3962 ft 207 kts 285°
2026-05-05 18:44 45.73597 21.62955 3717 ft 208 kts 286°
2026-05-05 18:44 45.74088 21.61028 3533 ft 204 kts 286°
2026-05-05 18:44 45.74569 21.59139 3397 ft 200 kts 286°
2026-05-05 18:44 45.75041 21.57284 3323 ft 193 kts 286°
2026-05-05 18:45 45.75483 21.55548 3136 ft 185 kts 286°
2026-05-05 18:45 45.75917 21.53840 2892 ft 181 kts 286°
2026-05-05 18:45 45.76341 21.52167 2680 ft 177 kts 285°
2026-05-05 18:45 45.76756 21.50528 2447 ft 174 kts 285°
2026-05-05 18:46 45.77165 21.48916 2222 ft 171 kts 285°
2026-05-05 18:46 45.77567 21.47328 2004 ft 169 kts 285°
2026-05-05 18:46 45.77962 21.45765 1797 ft 162 kts 285°
2026-05-05 18:46 45.78327 21.44335 1602 ft 148 kts 284°
2026-05-05 18:47 45.78666 21.42985 1393 ft 142 kts 285°
2026-05-05 18:47 45.79001 21.41664 1197 ft 141 kts 287°
2026-05-05 18:47 45.79328 21.40367 1012 ft 140 kts 288°
2026-05-05 18:47 45.79656 21.39056 841 ft 140 kts 289°
2026-05-05 18:48 45.79986 21.37748 663 ft 139 kts 289°
2026-05-05 18:48 45.80314 21.36445 474 ft 139 kts 288°
2026-05-05 18:48 45.80638 21.35164 358 ft 129 kts 288°
2026-05-05 18:48 45.80896 21.34129 352 ft 87 kts 289°
2026-05-05 18:49 45.81043 21.33546 350 ft 42 kts 289°
2026-05-05 18:49 45.81136 21.33175 344 ft 39 kts 290°
2026-05-05 18:49 45.81225 21.32823 345 ft 36 kts 290°
2026-05-05 18:49 45.81306 21.32500 353 ft 31 kts 290°
2026-05-05 18:50 45.81358 21.32297 356 ft 14 kts 289°
2026-05-05 18:50 45.81382 21.32185 343 ft 12 kts 276°
2026-05-05 18:50 45.81335 21.32133 346 ft 9 kts 196°
2026-05-05 18:50 45.81284 21.32109 346 ft 7 kts 199°
2026-05-05 18:51 45.81244 21.32088 342 ft 6 kts 199°
2026-05-05 18:51 45.81210 21.32071 346 ft 5 kts 199°
2026-05-05 18:51 45.81182 21.32057 342 ft 4 kts 199°
2026-05-05 18:51 45.81160 21.32047 351 ft 3 kts 192°
2026-05-05 18:52 45.81138 21.32066 346 ft 4 kts 128°
2026-05-05 18:52 45.81126 21.32092 350 ft 2 kts 141°
2026-05-05 18:52 45.81102 21.32092 343 ft 4 kts 191°
2026-05-05 18:52 45.81083 21.32083 342 ft 1 kts 200°
2026-05-05 18:53 45.81078 21.32081 342 ft 0 kts 200°
2026-05-05 18:53 45.81077 21.32080 342 ft 0 kts 200°